TimeAKST,TemperatureF,Dew PointF,Humidity,Sea Level PressureIn,VisibilityMPH,Wind Direction,Wind SpeedMPH,Gust SpeedMPH,PrecipitationIn,Events,Conditions,WindDirDegrees,DateUTC
6:36 AM,33.8,32.0,93,29.19,0.5,Calm,Calm,-,N/A,,Overcast,0,2013-02-07 15:36:00
6:56 AM,33.8,30.2,87,29.19,0.2,East,3.5,-,N/A,,Overcast,80,2013-02-07 15:56:00
7:16 AM,33.8,32.0,93,29.19,0.5,SE,4.6,-,N/A,,Overcast,140,2013-02-07 16:16:00
7:36 AM,33.8,32.0,93,29.19,3.0,SE,4.6,-,N/A,,Overcast,140,2013-02-07 16:36:00
7:56 AM,33.8,30.2,87,29.18,1.5,Calm,Calm,-,N/A,,Overcast,0,2013-02-07 16:56:00
8:16 AM,33.8,30.2,87,29.18,3.0,Calm,Calm,-,N/A,,Mostly Cloudy,0,2013-02-07 17:16:00
8:36 AM,33.8,30.2,87,29.17,0.5,NE,4.6,-,N/A,,Overcast,40,2013-02-07 17:36:00
8:56 AM,33.8,30.2,87,29.17,0.8,SSE,3.5,-,N/A,,Overcast,150,2013-02-07 17:56:00
9:16 AM,32.0,28.4,87,29.17,1.0,Calm,Calm,-,N/A,,Mostly Cloudy,0,2013-02-07 18:16:00
9:36 AM,33.8,30.2,87,29.18,1.2,NNE,5.8,-,N/A,,Overcast,20,2013-02-07 18:36:00
10:36 AM,35.6,33.8,93,29.16,10.0,SSW,19.6,32.2,N/A,,Partly Cloudy,210,2013-02-07 19:36:00
10:56 AM,37.4,30.2,75,29.17,10.0,SSW,20.7,34.5,N/A,,Clear,210,2013-02-07 19:56:00
11:16 AM,39.2,26.6,61,29.18,10.0,South,16.1,29.9,N/A,,Clear,190,2013-02-07 20:16:00
11:36 AM,39.2,26.6,61,29.18,10.0,South,12.7,21.9,N/A,,Clear,190,2013-02-07 20:36:00
11:56 AM,39.2,26.6,61,29.18,10.0,SSW,12.7,19.6,N/A,,Scattered Clouds,210,2013-02-07 20:56:00
12:16 PM,39.2,26.6,61,29.18,10.0,South,13.8,28.8,N/A,,Partly Cloudy,180,2013-02-07 21:16:00
12:36 PM,39.2,24.8,56,29.19,10.0,SE,8.1,24.2,N/A,,Mostly Cloudy,140,2013-02-07 21:36:00
12:56 PM,39.2,26.6,61,29.20,10.0,SSW,3.5,26.5,N/A,,Overcast,210,2013-02-07 21:56:00
1:16 PM,39.2,26.6,61,29.19,10.0,SE,11.5,20.7,N/A,,Overcast,140,2013-02-07 22:16:00
1:36 PM,39.2,26.6,61,29.19,10.0,Calm,Calm,-,N/A,,Overcast,0,2013-02-07 22:36:00
1:56 PM,39.2,28.4,65,29.20,10.0,NW,3.5,-,N/A,,Overcast,320,2013-02-07 22:56:00
2:16 PM,39.2,26.6,61,29.20,10.0,SW,10.4,28.8,N/A,,Overcast,220,2013-02-07 23:16:00
2:36 PM,37.4,26.6,65,29.21,10.0,SSW,15.0,28.8,N/A,,Overcast,200,2013-02-07 23:36:00
2:56 PM,39.2,26.6,61,29.21,10.0,SSW,11.5,29.9,N/A,,Scattered Clouds,210,2013-02-07 23:56:00
3:16 PM,39.2,26.6,61,29.21,10.0,SW,11.5,28.8,N/A,,Clear,220,2013-02-08 00:16:00
3:36 PM,39.2,24.8,56,29.22,10.0,South,10.4,-,N/A,,Partly Cloudy,190,2013-02-08 00:36:00
3:56 PM,39.2,24.8,56,29.22,10.0,WSW,12.7,21.9,N/A,,Partly Cloudy,240,2013-02-08 00:56:00
4:16 PM,39.2,24.8,56,29.22,10.0,SW,18.4,25.3,N/A,,Clear,230,2013-02-08 01:16:00
4:36 PM,39.2,24.8,56,29.22,10.0,South,21.9,34.5,N/A,,Clear,190,2013-02-08 01:36:00
4:56 PM,39.2,24.8,56,29.23,10.0,SW,21.9,26.5,N/A,,Clear,220,2013-02-08 01:56:00
5:16 PM,39.2,24.8,56,29.23,10.0,South,15.0,27.6,N/A,,Clear,190,2013-02-08 02:16:00
5:36 PM,39.2,24.8,56,29.25,10.0,SSW,17.3,24.2,N/A,,Clear,210,2013-02-08 02:36:00
5:56 PM,39.2,24.8,56,29.25,10.0,SW,12.7,20.7,N/A,,Clear,230,2013-02-08 02:56:00
6:16 PM,39.2,23.0,52,29.26,10.0,SW,5.8,18.4,N/A,,Clear,230,2013-02-08 03:16:00
6:36 PM,39.2,21.2,49,29.26,10.0,SSW,6.9,-,N/A,,Clear,210,2013-02-08 03:36:00
6:56 PM,37.4,21.2,52,29.28,10.0,East,4.6,-,N/A,,Clear,90,2013-02-08 03:56:00
7:16 PM,37.4,21.2,52,29.29,10.0,Calm,Calm,-,N/A,,Clear,0,2013-02-08 04:16:00
7:36 PM,37.4,21.2,52,29.30,10.0,North,3.5,-,N/A,,Scattered Clouds,360,2013-02-08 04:36:00
7:56 PM,39.2,23.0,52,29.30,10.0,WSW,11.5,-,N/A,,Partly Cloudy,240,2013-02-08 04:56:00
8:16 PM,39.2,24.8,56,29.30,10.0,SSW,10.4,24.2,N/A,,Mostly Cloudy,200,2013-02-08 05:16:00
8:36 PM,39.2,24.8,56,29.31,10.0,SSW,8.1,17.3,N/A,,Overcast,210,2013-02-08 05:36:00
8:56 PM,39.2,24.8,56,29.32,10.0,Calm,Calm,-,N/A,,Overcast,0,2013-02-08 05:56:00
9:16 PM,39.2,24.8,56,29.32,10.0,Calm,Calm,-,N/A,,Overcast,0,2013-02-08 06:16:00
9:56 PM,37.4,26.6,65,29.34,10.0,East,4.6,-,N/A,,Mostly Cloudy,90,2013-02-08 06:56:00
10:16 PM,37.4,26.6,65,29.35,10.0,East,3.5,-,N/A,,Mostly Cloudy,100,2013-02-08 07:16:00
10:36 PM,37.4,28.4,70,29.35,10.0,South,15.0,20.7,N/A,,Overcast,190,2013-02-08 07:36:00
10:56 PM,37.4,26.6,65,29.36,10.0,SSW,4.6,-,N/A,,Scattered Clouds,200,2013-02-08 07:56:00
11:16 PM,39.2,24.8,56,29.37,10.0,South,10.4,21.9,N/A,,Clear,180,2013-02-08 08:16:00
11:36 PM,39.2,23.0,52,29.38,10.0,WSW,3.5,19.6,N/A,,Partly Cloudy,240,2013-02-08 08:36:00
11:56 PM,39.2,23.0,52,29.38,10.0,SW,3.5,-,N/A,,Mostly Cloudy,220,2013-02-08 08:56:00